sat.trackr.live / text

‹ back to catalog

STARLINK-33562

NORAD 62102 · 2024-220Q

PAYLOAD ACTIVE UNKNOWN

§ Identity

Operator
Country
US
Launch date
2024-11-25
Launch site
AFETR
Launch vehicle
Mass (kg)
RCS (m²)

Purposes: comms

External: N2YO · Heavens-Above · Gunter

§ Orbital elements

Epoch: 2026-09-21T11:09:49.145760Z

Period
94.27 min
Inclination
42.9986°
Eccentricity
0.0000531
Mean motion
15.27586430 rev/d
Perigee alt
482.7 km
Apogee alt
483.4 km
Semi-major
6,861.2 km
B*
3.1683e-4
RAAN
179.8044°
Arg perigee
338.8039°
Mean anomaly
21.2790°
Rev number
10,296

§ Raw data

STARLINK-335621 62102U 24220Q   26264.46515215  .00008468  00000+0  31683-3 0  99992 62102  42.9986 179.8044 0000531 338.8039  21.2790 15.27586430102967

JSON: /api/v1/satellites/62102 · /tle

For live sub-satellite position, see the globe view (requires WebGL).

§ Visibility from observer

Set your observer location to see the next 7 days of passes ≥ 10°. The values pass through the URL so the page stays shareable.

No JS? Fill the form by hand. The geolocation button needs JavaScript.